Location: Unspecified
(40.4972°N, 0.0000°E)
Time: 03:46:26
(UTC+00:00)

DUCHIFAT 1 - Visible Passes

Search period start: 04 April 2026 00:00
Search period end: 14 April 2026 00:00
Orbit: 408 x 413 km, 98.1° (Epoch: 29 March)

Date Brightness Start Highest point End Pass type
(mag) Time Alt. Az. Time Alt. Az. Time Alt. Az.
4 Apr ? 19:53:11 36° ENE 19:53:11 36° ENE 19:56:06 10° N visible
5 Apr ? 20:37:23 40° WNW 20:37:23 40° WNW 20:39:58 10° NNW visible
6 Apr ? 19:48:42 30° E 19:48:54 30° ENE 19:51:43 10° N visible
6 Apr ? 21:21:27 11° W 21:21:27 11° W 21:21:45 10° WNW visible
7 Apr ? 20:32:39 51° WNW 20:32:39 51° WNW 20:35:28 10° NNW visible
8 Apr ? 19:43:44 25° E 19:44:07 25° ENE 19:46:46 10° NNE visible
8 Apr ? 21:16:28 13° W 21:16:28 13° W 21:17:33 10° WNW visible
9 Apr ? 20:27:25 68° W 20:27:25 68° W 20:30:26 10° NNW visible
10 Apr ? 19:38:15 20° E 19:38:51 21° ENE 19:41:17 10° NNE visible
10 Apr ? 21:10:57 16° W 21:10:57 16° W 21:12:37 10° NW visible
11 Apr ? 20:21:40 86° S 20:21:43 89° WSW 20:24:52 10° NNW visible
12 Apr ? 19:32:15 16° E 19:33:04 17° ENE 19:35:13 10° NNE visible
12 Apr ? 21:04:57 20° W 21:04:57 20° W 21:07:05 10° NW visible
13 Apr ? 20:15:24 66° ESE 20:15:38 70° ENE 20:18:46 10° N visible
